Weather in Biryuch

Russia / Voronezh Oblast     51°20′43″N   40°42′22″E
temp.,
°C
wind,
m/s
gust,
m/s
humid.,
%
clouds,
%
prec.,
mm/h
press.,
hPa
HPBL,
m
1 march, mon
mon100:00−3n359299 0.0 1019323
03:00−6nne239689 0.0 102189
06:00−7nne229699 0.1 102335
09:00−6nne229172 0.1 1025130
12:00−4n238478 0.0 1027426
15:00−2nw348385 0.0 1027600
18:00−2nw2585100 0.0 1026166
21:00−4wsw348793 0.0 102654
2 march, tue
tue200:00−4wsw489261 0.0 1025176
03:00−3wsw6139371 0.0 1023477
06:00−2wsw71485100 0.0 1020584
09:00−1wsw81488100 0.0 1018614
12:00+1w81389100 0.0 1015842
15:000w81398100 0.3 1013633
18:000w71297100 1.4 1011545
21:000wnw5998100 1.9 1011432
3 march, wed
wed300:000nw5995100 1.1 1010476
03:00−2nnw41094100 1.1 1011377
06:00−4nw5109412 0.0 1013336
09:00−3nw6119145 0.0 1015722
12:00−2nnw7108195 0.3 10161072
15:00−2nw7107597 0.3 10171140
18:00−4wnw498350 0.0 1019259
21:00−4w4108825 0.0 1020270
4 march, thu
thu400:00−3w5109256 0.0 1019402
03:00−4wsw489475 0.1 1019184
06:00−2wsw5109495 0.1 1018440
09:00−1wsw6139196 0.1 1017559
12:00+1wsw7138020 0.0 1014753
15:00+3wsw8147011 0.0 1012850
18:00+2sw716680 0.0 1009539
21:00+1sw818720 0.0 1009629
5 march, fri
fri500:00+2sw8167834 0.0 1007629
03:00+2wsw8159167 0.0 1006552
06:00+2wsw61395100 0.3 1007494
09:00+2wsw61293100 0.3 1008521
12:00+4wsw61089100 0.1 1008677
15:00+4sw51088100 0.1 1008543
18:00+3ssw51495100 1.7 1006647
21:00+4ssw61691100 3.9 1005611